Location: Unspecified
(0.0000°N, 0.0000°E)
Time: 18:28:54
(UTC+00:00)

STARLINK 1009 - Pass Details

Date: 17 January 2020
Orbit: 348 x 352 km, 53.0° (Epoch: 17 January)

Event Time Altitude Azimuth Distance (km) Brightness Sun altitude
Rises 05:23:12 0° 211° (SSW) 2,145 6.5 -10.9°
Reaches altitude 10° 05:25:13 10° 209° (SSW) 1,301 5.5 -10.4°
Maximum altitude 05:28:06 73° 124° (SE) 364 2.9 -9.7°
Drops below altitude 10° 05:30:59 10° 39° (NE) 1,294 5.8 -9.1°
Sets 05:32:58 0° 37° (NE) 2,131 6.8 -8.6°
